Weather History for Morristown, NJ

Change the Weather History Date:

Saturday, January 19, 2013

  Actual Average Record
Temperature  
Mean Temperature 36 °F -  
Max Temperature 50 °F 36 °F 66 °F (1973)
Min Temperature 23 °F 15 °F - (2004)
Degree Days  
Heating Degree Days 28    
Moisture  
Dew Point 22 °F    
Average Humidity 62    
Maximum Humidity 80    
Minimum Humidity 37    
Precipitation  
Precipitation 0.00 in - - ()
Sea Level Pressure  
Sea Level Pressure 30.19 in    
Wind  
Wind Speed 5 mph (SW)    
Max Wind Speed 20 mph    
Max Gust Speed 24 mph    
Visibility 10 miles    
Events      
Averages and records for this station are not official NWS values.
T = Trace of Precipitation, MM = Missing Value Source: NWS Daily Summary

Daily Weather History Graph

Daily Weather History Graph

Search for Another Location

Airport:

Trip Planner

Search our weather history database for the weather conditions in past years. The results will help you decide how hot, cold, wet, or windy it might be!

Date:

Astronomy

Jan. 19, 2013 Rise Set
Actual Time 7:17 AM EST 4:59 PM EST
Civil Twilight 6:47 AM EST 5:29 PM EST
Nautical Twilight 6:14 AM EST 6:03 PM EST
Astronomical Twilight 5:41 AM EST 6:35 PM EST
Moon 11:24 AM EST (1/19) 12:49 AM EST (1/19)
Length of Visible Light 10h 41m
Length of Day
9h 41m
First Quarter, 57% of the Moon is Illuminated
Jan 19
First Quarter
Jan 26
Full
Feb 3
Last Quarter
Feb 10
New
Feb 17
First Quarter

Hourly Weather History & Observations

Time (EST) Temp. Windchill Dew Point Humidity Pressure Visibility Wind Dir Wind Speed Gust Speed Precip Events Conditions
12:15 AM 23.0 °F - 17.6 °F 80% 30.39 in 10.0 mi Calm Calm - N/A   Clear
12:35 AM 23.0 °F - 15.8 °F 74% 30.39 in 10.0 mi Calm Calm - N/A   Clear
12:55 AM 23.0 °F 18.4 °F 15.8 °F 74% 30.39 in 10.0 mi SSW 3.5 mph - N/A   Clear
1:15 AM 23.0 °F 18.4 °F 15.8 °F 74% 30.38 in 10.0 mi South 3.5 mph - N/A   Clear
1:35 AM 24.8 °F 20.5 °F 15.8 °F 69% 30.38 in 10.0 mi SSW 3.5 mph - N/A   Clear
1:55 AM 24.8 °F 20.5 °F 15.8 °F 69% 30.37 in 10.0 mi SSW 3.5 mph - N/A   Clear
2:15 AM 26.6 °F 20.0 °F 15.8 °F 64% 30.37 in 10.0 mi SSW 5.8 mph - N/A   Clear
2:35 AM 26.6 °F 20.0 °F 15.8 °F 64% 30.36 in 10.0 mi SSW 5.8 mph - N/A   Clear
2:55 AM 26.6 °F 19.1 °F 15.8 °F 64% 30.35 in 10.0 mi SSW 6.9 mph - N/A   Clear
3:15 AM 26.6 °F 21.2 °F 15.8 °F 64% 30.34 in 10.0 mi SSW 4.6 mph - N/A   Clear
3:35 AM 26.6 °F 19.1 °F 15.8 °F 64% 30.33 in 10.0 mi SSW 6.9 mph - N/A   Clear
3:55 AM 26.6 °F 18.2 °F 15.8 °F 64% 30.33 in 10.0 mi SSW 8.1 mph - N/A   Clear
4:15 AM 26.6 °F 21.2 °F 17.6 °F 69% 30.32 in 10.0 mi SSW 4.6 mph - N/A   Clear
4:35 AM 26.6 °F 22.6 °F 17.6 °F 69% 30.32 in 10.0 mi SSW 3.5 mph - N/A   Scattered Clouds
4:55 AM 26.6 °F - 17.6 °F 69% 30.31 in 10.0 mi Calm Calm - N/A   Mostly Cloudy
5:15 AM 26.6 °F - 19.4 °F 74% 30.31 in 10.0 mi Calm Calm - N/A   Overcast
5:35 AM 26.6 °F - 19.4 °F 74% 30.31 in 10.0 mi Calm Calm - N/A   Overcast
6:45 AM 28.4 °F 23.3 °F 19.4 °F 69% 30.30 in 10.0 mi West 4.6 mph - N/A   Mostly Cloudy
7:45 AM 30.2 °F 23.4 °F 21.2 °F 69% 30.29 in 10.0 mi SW 6.9 mph - N/A   Mostly Cloudy
8:45 AM 33.8 °F 25.8 °F 23.0 °F 65% 30.28 in 10.0 mi SW 10.4 mph 16.1 mph N/A   Scattered Clouds
9:45 AM 35.6 °F 25.9 °F 24.8 °F 65% 30.26 in 10.0 mi WSW 16.1 mph 23.0 mph N/A   Scattered Clouds
10:45 AM 39.2 °F 31.6 °F 24.8 °F 56% 30.23 in 10.0 mi WSW 12.7 mph 24.2 mph N/A   Scattered Clouds
11:45 AM 42.8 °F 34.8 °F 24.8 °F 49% 30.18 in 10.0 mi WSW 17.3 mph 24.2 mph N/A   Scattered Clouds
12:45 PM 46.4 °F 40.4 °F 26.6 °F 46% 30.14 in 10.0 mi SW 13.8 mph 24.2 mph N/A   Mostly Cloudy
1:45 PM 46.4 °F 39.0 °F 24.8 °F 43% 30.11 in 10.0 mi SW 19.6 mph - N/A   Mostly Cloudy
2:45 PM 50.0 °F - 24.8 °F 37% 30.08 in 10.0 mi WSW 9.2 mph 16.1 mph N/A   Mostly Cloudy
4:45 PM 46.4 °F 41.5 °F 24.8 °F 43% 30.05 in 10.0 mi SW 10.4 mph - N/A   Mostly Cloudy
5:45 PM 46.4 °F 40.7 °F 24.8 °F 43% 30.05 in 10.0 mi SW 12.7 mph 19.6 mph N/A   Mostly Cloudy
6:45 PM 46.4 °F 40.7 °F 24.8 °F 43% 30.04 in 10.0 mi West 12.7 mph 20.7 mph N/A   Mostly Cloudy
7:45 PM 44.6 °F 39.2 °F 26.6 °F 49% 30.02 in 10.0 mi WSW 10.4 mph - N/A   Scattered Clouds
8:45 PM 42.8 °F 37.0 °F 26.6 °F 53% 30.00 in 10.0 mi SW 10.4 mph - N/A   Scattered Clouds
9:45 PM 42.8 °F 37.0 °F 26.6 °F 53% 29.98 in 7.0 mi WNW 10.4 mph - N/A   Mostly Cloudy
9:55 PM 42.8 °F 38.6 °F 30.2 °F 61% 29.97 in 10.0 mi SSW 6.9 mph - N/A   Clear
10:15 PM 42.8 °F 39.3 °F 30.2 °F 61% 29.96 in 10.0 mi SSW 5.8 mph - N/A   Clear
10:35 PM 42.8 °F 38.0 °F 30.2 °F 61% 29.95 in 10.0 mi SSW 8.1 mph - N/A   Clear
10:55 PM 41.0 °F 36.4 °F 30.2 °F 65% 29.95 in 10.0 mi SSW 6.9 mph - N/A   Clear
11:15 PM 41.0 °F 37.1 °F 30.2 °F 65% 29.93 in 10.0 mi SW 5.8 mph - N/A   Clear
11:35 PM 41.0 °F 36.4 °F 30.2 °F 65% 29.93 in 10.0 mi SW 6.9 mph - N/A   Clear
11:55 PM 39.2 °F 35.0 °F 30.2 °F 70% 29.92 in 10.0 mi SSW 5.8 mph - N/A   Clear